Terug naar catalogus

METEOR 2-11 DEB

LostPO
NORAD 42452·DEBRIS·🇷🇺 Russia

Gelanceerd Jul 5, 1984 vanaf Plesetsk Cosmodrome

Loading…

Volgende Passages (komende 24 uur)

TLE

VerouderdSource: Space-Track

Epoch: Jun 29, 2018, 07:28 UTC

1 42452U 84072N   18180.31163210 +.00000878 +00000-0 +74172-3 0  9990
2 42452 082.5496 197.9346 0021235 005.9201 181.1941 13.86626268126992

Volg METEOR 2-11 DEB in realtime met AllMySat

Download on the App Store